Location: Glendale
(37.4556°N, 88.6714°W)
Time: 03:32:05
(UTC+00:00)

SWAS - Pass Details

Date: 08 December 2019
Orbit: 579 x 593 km, 69.9° (Epoch: 19 January)

Event Time Altitude Azimuth Distance (km) Brightness Sun altitude
Rises 11:36:40 0° 205° (SSW) 2,796 7.8 -15.4°
Reaches altitude 10° 11:38:53 10° 206° (SSW) 1,902 7.0 -15.0°
Maximum altitude 11:43:09 79° 293° (WNW) 603 4.3 -14.2°
Drops below altitude 10° 11:47:28 10° 21° (NNE) 1,924 7.1 -13.4°
Sets 11:49:43 0° 23° (NNE) 2,831 8.0 -13.0°
